Simultaneous Nadir Overpasses (SNOs) Predictions

Prediction of SNOs between AQUA and NPP Satellite Orbit:

Table of predicted SNOs for the next 14.0 days since TLE Epoch: 9/4/2021
Index Date (AQUA) Time (AQUA) Lat,Lon (AQUA) SZA (AQUA ) Date (NPP) Time (NPP) Lat,Lon (NPP) SZA (NPP ) Distance(km) Time Diff (sec)
1 09/05/2021 21:48:46 -75.57, -89.40 88.73 09/05/2021 21:48:37 -75.57, -89.38 88.72 0.58 9
2 09/05/2021 22:37:48 76.70, 81.82 89.99 09/05/2021 22:38:56 76.71, 81.92 89.91 2.84 68
3 09/08/2021 13:16:08 74.55,-143.88 93.34 09/08/2021 13:15:09 74.54,-143.92 93.40 1.21 59
4 09/08/2021 14:05:06 -76.05, 27.89 88.33 09/08/2021 14:05:23 -76.06, 27.97 88.37 2.55 17
5 09/11/2021 05:32:23 75.23, -26.25 93.53 09/11/2021 05:31:50 75.23, -26.21 93.55 1.13 33
6 09/11/2021 06:21:32 -76.17, 144.14 87.52 09/11/2021 06:22:16 -76.16, 144.12 87.56 0.72 44
7 09/13/2021 21:48:49 75.39, 90.08 94.29 09/13/2021 21:48:43 75.38, 90.03 94.31 1.70 6
8 09/13/2021 22:37:50 -76.71, -98.17 87.20 09/13/2021 22:39:00 -76.72, -98.07 87.28 2.65 70
9 09/16/2021 13:16:07 -74.70, 36.49 84.01 09/16/2021 13:15:10 -74.70, 36.50 83.96 0.25 57



Historial Predications of SNOs between AQUA and NPP
